Regional Weather Roundup
Issued by NWS

Home | Current Version | Previous Version | Graphics & Text | Print | Product List | Glossary On
Versions: 1 2 3 4 5 6 7 8 9 10 11 12 13 14 15 16 17 18 19 20 21 22 23 24 25 26 27 28 29 30 31 32 33 34 35 36 37 38 39 40 41 42 43 44 45 46 47 48 49 50
000
ASUS43 KBIS 062110
RWRND

NORTH DAKOTA REGIONAL WEATHER ROUNDUP
NATIONAL WEATHER SERVICE BISMARCK ND
300 PM CST FRI MAR 06 2015

NOTE: "FAIR" INDICATES FEW OR NO CLOUDS BELOW 12,000 FEET WITH NO
SIGNIFICANT WEATHER AND/OR OBSTRUCTIONS TO VISIBILITY.


NDZ001>003-009>011-017-062200-
NORTHWEST NORTH DAKOTA

CITY           SKY/WX    TMP DP  RH WIND       PRES   REMARKS
WILLISTON      PTSUNNY   47  28  47 W17G24    29.96S
MINOT          CLOUDY    37  22  54 S12G20    29.91F
MINOT AFB      CLOUDY    37  27  68 SW13      29.90F
$$

NDZ018>021-031>035-040>046-062200-
SOUTHWEST NORTH DAKOTA

CITY           SKY/WX    TMP DP  RH WIND       PRES   REMARKS
BISMARCK       CLOUDY    43  20  39 SW7       30.01F
DICKINSON      PTSUNNY   54  20  26 W25G35    29.95F
GARRISON         N/A     39  26  59 SW8       29.95F
HETTINGER ARPT MOSUNNY   56  17  21 W26G33    30.00F
$$

NDZ004>008-012>016-024-026-027-054-062200-
NORTHEAST NORTH DAKOTA

CITY           SKY/WX    TMP DP  RH WIND       PRES   REMARKS
GRAND FORKS    PTSUNNY   38  17  42 SW5       30.01F
GRND FRKS AFB  CLOUDY    40  16  37 W10       30.00F
DEVILS LAKE    MOSUNNY   34  21  60 SW14      29.97F
$$

NDZ022-023-025-028>030-036>039-047>053-062200-
SOUTHEAST NORTH DAKOTA

CITY           SKY/WX    TMP DP  RH WIND       PRES   REMARKS
FARGO          MOSUNNY   39  19  44 NW8       30.04F
JAMESTOWN      MOSUNNY   37  20  50 W12       30.01F
$$



USA.gov is the U.S. government's official web portal to all federal, state and local government web resources and services.